Location: Bailleul
(50.3375°N, 2.8513°E)
Time: 06:58:09
(UTC+00:00)

Terra - Visible Passes

Search period start: 29 July 2021 00:00
Search period end: 08 August 2021 00:00
Orbit: 701 x 703 km, 98.2° (Epoch: 28 July)

Date Brightness Start Highest point End Pass type
(mag) Time Alt. Az. Time Alt. Az. Time Alt. Az.
29 Jul 2.6 20:47:56 13° SE 20:51:49 38° ENE 20:56:14 10° N visible
29 Jul 3.2 22:26:49 18° SSW 22:29:38 31° W 22:33:54 10° NNW visible
30 Jul 1.8 21:31:15 21° SSE 21:34:26 88° ENE 21:39:14 10° NNW visible
30 Jul 4.2 23:10:29 10° WSW 23:12:51 14° W 23:15:15 10° WNW visible
31 Jul 2.9 20:35:41 11° ESE 20:39:39 31° ENE 20:43:50 10° N visible
31 Jul 2.8 22:14:34 21° SSW 22:17:18 40° W 22:21:47 10° NNW visible
01 Aug 1.9 21:19:00 21° SSE 21:22:12 69° ENE 21:26:57 10° N visible
01 Aug 4.0 22:57:53 12° SW 23:00:27 17° W 23:03:37 10° NW visible
02 Aug 3.2 20:23:39 10° ESE 20:27:30 25° ENE 20:31:23 10° N visible
02 Aug 2.4 22:02:19 24° SSW 22:04:59 51° W 22:09:39 10° NNW visible
03 Aug 2.1 21:06:45 19° SE 21:09:58 54° ENE 21:14:38 10° N visible
03 Aug 3.7 22:45:38 15° SW 22:48:03 22° W 22:51:46 10° NW visible
04 Aug 3.5 20:11:54 10° ESE 20:15:23 21° ENE 20:18:53 10° NNE visible
04 Aug 2.0 21:50:04 26° S 21:52:42 65° WSW 21:57:28 10° NNW visible
05 Aug 2.4 20:54:30 17° SE 20:57:47 43° ENE 21:02:17 10° N visible
05 Aug 3.3 22:33:24 19° SW 22:35:41 28° W 22:39:47 10° NW visible
06 Aug 3.7 20:00:17 10° E 20:03:16 17° ENE 20:06:18 10° NNE visible
06 Aug 1.8 21:37:50 27° S 21:40:26 83° WSW 21:45:14 10° NNW visible
06 Aug 4.3 23:17:09 10° WSW 23:18:56 12° W 23:20:45 10° WNW visible
07 Aug 2.7 20:42:16 15° ESE 20:45:36 34° ENE 20:49:54 10° N visible
07 Aug 3.0 22:21:09 23° SW 22:23:20 35° W 22:27:43 10° NNW visible
